Location: Castelbiague
(43.0361°N, 0.9246°E)
Time: 12:45:22
(UTC+00:00)

Meteor 1-4 Rocket - Pass Details

Date: 23 October 2021
Orbit: 446 x 496 km, 81.2° (Epoch: 29 November)

Event Time Altitude Azimuth Distance (km) Brightness Sun altitude
Rises 05:13:45 0° 354° (N) 2,466 6.1 -12.7°
Reaches altitude 10° 05:15:52 10° 360° (N) 1,593 5.1 -12.3°
Maximum altitude 05:19:16 53° 78° (ENE) 570 3.3 -11.7°
Drops below altitude 10° 05:22:41 10° 156° (SSE) 1,600 5.6 -11.1°
Sets 05:24:48 0° 161° (SSE) 2,478 6.5 -10.7°
